Wind_Speed
51 47 46 50 53 51 48 47 46 46 47 47 45 45 46 47 47 48 45 43 41 39 40 42 43 44 41 40 42 42 41 42 42 42 42 43 44 45 45 45 45 45 45 45 46 46 47 47 47 48 48 48 48 48 48 48 49 49 49 49 49 49 50 50 51 51 52 52 52 52 53 54 54 55 57 58 59 61 62 63 64 65 66 68 69 70
52 47 49 54 55 51 49 49 49 48 48 48 47 46 46 47 49 49 46 45 44 41 42 45 46 46 44 42 44 45 44 44 44 44 45 45 46 46 46 46 46 47 47 48 48 48 49 49 49 49 49 49 49 49 50 50 50 50 50 50 51 51 51 52 52 52 53 53 54 54 55 56 57 58 60 61 62 64 65 66 67 68 69 71 72 73
52 49 52 55 54 52 51 50 50 49 49 49 49 48 47 49 51 50 47 45 46 45 44 46 47 47 46 45 47 47 46 46 46 46 46 47 47 47 47 48 48 49 50 50 50 50 50 50 50 50 50 50 51 51 51 52 52 52 52 52 53 53 53 54 54 54 55 56 57 58 59 60 61 63 64 65 67 68 69 70 71 72 73 74 75 76
52 50 52 54 53 53 52 51 51 50 49 49 49 48 48 50 51 49 45 45 48 47 45 47 47 47 47 47 48 48 48 48 47 47 48 48 48 49 49 50 50 51 51 51 51 51 51 51 51 51 52 52 52 53 53 53 54 54 54 55 55 55 56 56 56 57 58 59 60 61 62 63 64 66 67 69 70 71 72 73 74 75 76 77 78 78
54 50 52 55 55 54 53 52 53 52 51 50 50 49 50 51 51 48 46 46 48 47 46 48 46 46 48 48 49 49 49 49 49 49 49 50 50 51 52 52 53 53 52 52 51 52 52 52 53 53 53 54 54 54 55 55 56 56 57 57 57 58 58 58 59 59 60 61 62 63 64 65 66 67 68 70 71 72 74 75 76 78 79 80 80 81
55 51 52 56 56 55 55 53 54 54 54 52 49 50 53 52 50 50 48 47 48 46 47 49 46 45 49 49 49 50 50 50 50 51 51 52 52 53 54 54 54 54 53 52 52 53 53 54 54 54 55 55 55 56 57 58 58 59 59 59 60 60 60 61 61 62 63 64 65 65 66 67 68 69 69 70 71 72 73 75 77 78 80 81 82 84
54 52 54 58 58 57 56 54 55 57 57 53 49 51 55 53 51 51 50 50 48 47 48 50 47 45 48 50 51 51 51 51 52 53 53 54 54 55 55 56 55 55 54 53 53 54 55 55 55 56 56 56 57 58 59 60 61 61 61 62 62 62 63 64 65 66 67 67 68 69 70 70 71 71 72 73 74 74 75 76 77 79 80 82 83 84
54 56 56 58 59 58 57 56 57 60 59 53 50 54 56 54 53 52 51 51 50 48 48 49 49 48 47 50 53 52 52 53 54 55 55 55 56 56 57 57 56 55 55 54 55 55 55 56 57 57 58 59 59 61 61 62 63 63 64 64 64 65 66 67 68 69 70 71 72 72 73 74 74 75 76 77 78 79 79 80 81 82 83 83 84 85
56 57 58 60 61 59 59 60 61 62 59 55 54 56 56 56 55 54 53 52 51 50 47 48 51 50 48 50 54 53 53 55 56 57 57 57 57 58 58 57 57 57 56 57 56 56 57 57 59 59 60 61 62 63 63 64 64 65 66 66 67 68 69 70 71 72 73 74 74 75 76 77 78 79 79 80 81 82 83 83 83 84 84 85 85 86
56 58 61 62 61 60 61 62 62 62 59 57 56 57 57 57 57 56 55 53 53 50 47 49 54 54 50 51 54 55 55 57 58 58 58 59 59 59 59 59 59 59 58 58 58 58 59 60 61 61 62 63 64 65 65 65 66 67 68 68 69 70 71 73 73 74 75 76 77 77 78 79 80 81 82 83 84 85 85 86 86 86 86 86 87 88
56 58 61 61 61 62 62 62 62 61 60 58 58 59 58 59 59 58 56 55 54 50 49 53 57 57 52 49 53 58 59 58 58 59 59 60 60 60 61 61 61 61 60 61 61 62 62 63 64 64 65 66 66 67 67 67 68 69 70 71 72 73 74 75 76 77 78 78 79 79 80 81 82 83 84 85 86 87 88 88 88 88 88 88 90 91
57 58 59 60 61 62 62 62 62 62 61 60 60 60 59 59 59 58 57 57 56 52 52 56 59 58 53 49 52 58 61 60 59 60 61 61 61 62 63 63 63 63 63 64 65 65 66 66 67 67 68 68 69 69 69 70 71 72 73 74 76 77 78 79 80 80 81 81 81 81 82 83 84 86 87 88 89 90 90 91 91 91 92 93 94 96
59 58 59 60 61 61 62 62 62 62 62 62 61 60 60 60 59 58 58 58 57 55 55 58 60 57 52 51 53 56 60 62 61 62 62 62 63 64 65 66 66 66 66 67 68 68 69 69 70 70 70 71 71 72 73 74 75 76 77 78 79 81 81 82 83 83 83 83 84 84 85 87 88 89 91 92 92 92 92 93 94 95 96 97 99 101
59 59 59 60 62 63 64 63 62 63 62 62 61 59 60 60 59 58 59 59 58 57 56 58 59 56 52 54 57 57 59 62 63 63 64 64 65 66 67 68 68 69 69 69 70 71 71 72 72 72 73 73 74 75 77 78 79 80 81 83 83 84 85 85 85 85 86 87 88 89 89 90 91 93 94 96 96 96 96 97 98 99 100 102 104 106
62 61 60 62 63 64 65 64 63 63 63 61 61 60 60 60 60 60 61 60 59 58 57 57 57 55 53 57 60 60 59 62 64 65 64 64 65 66 68 69 70 71 71 71 72 73 74 74 75 75 76 76 77 78 80 82 84 85 86 86 87 88 88 89 89 90 91 92 92 93 93 94 95 97 99 100 101 101 101 101 103 104 106 107 109 111
64 62 61 64 65 64 65 65 63 64 63 61 61 61 60 61 64 63 61 60 60 59 58 57 57 57 57 60 62 62 62 63 65 64 64 65 66 67 68 69 71 72 72 73 74 75 76 76 77 78 78 79 80 82 84 86 87 88 89 90 91 92 92 93 94 95 96 97 97 97 98 99 100 101 103 104 104 104 104 105 107 108 110 111 112 113
65 63 62 65 65 64 65 65 64 64 63 62 62 61 62 66 67 64 62 62 62 61 59 59 60 60 61 61 61 63 64 65 65 65 65 66 67 68 69 70 71 72 73 74 75 76 77 78 80 81 82 83 84 86 87 90 91 92 93 94 94 95 96 97 98 99 100 101 102 102 102 103 103 104 104 104 104 105 106 108 110 111 113 114 115 116
65 63 62 65 65 65 66 66 65 65 63 62 63 63 66 69 67 65 65 64 64 64 62 61 61 62 62 61 60 62 64 65 64 65 67 68 69 70 70 71 72 73 75 76 77 79 80 81 83 84 85 86 88 89 91 93 94 95 96 96 97 98 100 101 102 103 104 105 105 105 105 105 105 105 105 105 107 109 110 111 113 114 115 116 118 118
65 65 63 64 65 65 67 66 65 64 64 64 65 66 68 69 67 67 67 66 66 66 64 62 62 62 62 61 61 63 65 65 65 68 71 72 72 72 73 73 74 75 77 78 79 81 83 85 86 87 88 90 91 93 94 95 96 97 98 100 101 102 103 104 105 105 106 106 106 107 107 107 107 108 108 109 111 112 113 114 115 116 117 118 119 119
68 67 64 63 66 67 67 66 64 65 67 68 68 68 69 68 68 68 68 68 68 67 66 65 63 62 62 61 62 64 64 64 67 71 75 75 75 75 75 76 77 78 79 80 82 84 86 87 88 90 91 93 94 95 96 98 98 100 101 102 104 105 105 105 105 105 106 106 106 106 107 108 108 109 110 111 111 112 113 114 116 117 118 119 119 119
71 71 67 65 67 68 67 66 67 68 69 69 68 68 68 69 70 69 69 70 70 70 69 69 66 63 61 61 62 62 63 64 69 73 76 76 77 78 79 80 80 81 82 83 85 87 88 89 90 91 92 93 94 96 97 99 100 101 102 103 104 105 104 104 104 104 104 104 105 105 107 108 108 108 109 110 111 112 114 115 117 118 118 118 118 117
74 74 73 70 69 70 69 68 70 71 70 70 69 68 68 70 71 72 72 72 74 73 72 71 68 63 62 62 62 63 64 67 72 75 76 77 79 80 82 83 84 84 84 86 87 88 88 89 90 91 92 94 95 97 99 100 101 102 103 103 104 104 103 103 103 103 103 104 105 105 106 107 108 108 110 111 113 115 116 116 116 116 115 115 115 115
76 76 76 74 71 72 73 72 72 72 71 71 70 69 69 71 73 75 76 75 74 74 73 73 71 65 64 66 65 65 67 71 75 78 79 80 82 84 86 86 86 87 88 88 89 89 90 90 92 93 95 97 98 99 101 102 102 102 102 102 102 102 103 103 104 104 105 105 106 107 107 108 109 111 112 114 115 116 115 115 114 113 113 113 113 113
77 78 78 77 75 76 76 75 73 72 71 69 69 70 72 74 76 78 77 76 74 73 73 75 73 69 68 68 67 68 71 75 78 80 82 84 86 88 89 89 89 91 91 92 92 92 93 94 95 97 98 100 101 102 103 104 104 103 103 103 102 103 103 104 104 105 106 106 107 109 110 110 112 113 114 115 115 114 113 112 112 112 112 112 112 113
77 79 80 81 79 77 76 76 74 73 72 71 72 74 75 76 77 78 78 78 77 74 74 77 76 74 72 71 72 75 77 78 81 82 84 88 90 91 91 91 92 92 93 94 94 95 96 97 99 101 102 104 104 105 106 106 106 105 105 104 104 104 104 105 105 106 107 108 109 111 112 112 113 114 114 113 112 112 111 111 111 111 112 112 113 113
78 78 80 82 80 78 78 77 75 75 75 76 76 77 78 79 80 81 82 83 80 77 79 80 80 80 79 78 79 81 82 83 85 86 88 91 93 93 93 93 93 94 94 95 96 97 98 100 102 103 104 105 106 106 107 107 107 106 106 105 105 105 106 107 108 109 110 111 112 113 113 114 114 113 112 111 110 110 110 111 111 112 113 113 114 114
81 80 81 80 79 80 81 79 78 78 78 80 80 81 82 83 84 86 88 88 86 85 85 84 84 86 85 85 87 86 86 87 88 90 93 95 95 95 95 95 95 95 95 95 96 98 99 101 102 103 104 105 105 105 106 106 106 105 105 106 107 108 109 111 112 113 114 114 115 115 114 114 112 111 110 110 110 111 111 112 113 114 114 115 115 115
85 84 82 80 81 82 82 80 80 80 81 82 84 85 85 86 88 90 91 91 91 92 89 86 89 91 91 92 94 92 91 92 92 94 96 96 95 95 94 95 95 95 96 96 97 99 100 101 102 103 103 103 103 103 104 104 105 105 107 109 111 113 114 116 117 117 117 116 116 116 115 114 112 112 112 113 113 113 113 114 114 115 116 116 115 114
88 88 86 85 85 85 84 83 83 83 83 84 86 87 87 89 91 93 93 93 95 95 91 89 93 94 94 98 99 96 97 99 99 100 100 99 98 96 95 95 96 96 96 97 98 99 99 100 101 102 102 102 103 105 106 107 109 111 113 115 116 118 119 119 120 119 119 118 118 118 117 116 115 115 115 115 115 115 115 116 117 117 116 116 115 113
88 89 89 91 92 91 90 89 88 88 88 88 89 89 90 92 94 96 96 97 98 97 94 94 98 98 98 101 102 102 103 104 104 104 104 105 104 103 101 100 99 98 98 98 99 99 100 101 103 104 105 106 108 110 112 114 116 118 119 120 122 122 122 122 122 122 122 122 122 122 121 120 119 118 118 117 116 116 117 118 118 117 115 114 113 111
84 85 87 91 93 95 95 94 94 94 94 93 93 92 91 94 97 97 97 97 99 99 97 99 101 100 100 103 105 106 106 106 106 106 105 105 105 104 104 103 102 101 101 101 102 103 105 107 109 110 112 114 116 117 119 121 123 124 124 125 126 126 125 125 126 126 126 126 125 125 124 123 122 121 119 118 118 118 119 119 117 115 114 112 110 108
82 83 83 85 88 90 90 91 92 93 94 96 95 91 92 96 97 96 96 98 100 100 100 102 102 101 102 105 107 108 108 108 108 107 107 106 105 104 104 103 104 104 104 106 108 110 112 114 116 119 120 122 123 124 125 127 127 128 128 129 129 129 129 130 130 130 129 129 128 127 126 124 123 121 119 119 120 120 119 117 114 112 111 109 107 104
83 84 84 85 87 88 87 87 88 90 93 95 91 88 92 96 97 98 100 101 102 103 105 105 105 105 107 108 108 108 109 109 110 109 108 107 106 106 106 107 108 109 110 112 115 117 119 121 123 125 126 127 128 129 130 130 131 131 132 133 133 133 133 134 134 133 132 131 130 128 127 125 123 121 121 121 121 119 116 113 111 109 107 105 103 102
86 86 87 88 90 91 90 90 91 93 94 91 88 89 94 97 98 100 102 102 104 106 107 108 108 108 109 108 107 108 108 109 109 110 110 109 110 111 112 114 115 115 117 119 121 123 125 126 128 129 130 131 131 132 133 133 134 135 135 136 136 136 136 136 136 134 133 133 131 129 127 125 123 123 123 122 119 115 112 110 108 106 105 103 102 102
90 91 91 92 93 94 94 95 96 97 94 91 91 92 95 97 100 102 103 103 103 105 106 107 107 107 107 107 108 108 109 110 111 113 113 114 116 117 118 119 120 121 123 124 126 127 129 130 132 132 133 133 134 134 135 136 136 137 137 138 138 138 138 138 136 135 134 133 131 129 127 125 125 125 123 119 115 112 110 108 107 106 104 103 103 102
96 97 98 98 98 98 98 99 100 99 97 96 96 96 97 100 103 106 107 106 104 105 107 107 106 107 109 110 111 112 113 115 116 116 116 118 120 121 121 122 123 125 127 128 129 130 131 133 134 134 134 135 135 136 136 137 138 138 138 139 139 139 139 138 136 135 134 132 130 128 127 126 126 124 120 116 113 111 109 108 107 106 105 104 104 103
100 101 102 102 103 103 104 105 105 104 102 100 99 100 102 105 108 110 111 108 107 108 109 109 109 110 113 115 116 117 119 119 119 117 118 121 123 123 123 125 126 128 130 130 131 132 133 134 134 134 135 135 136 137 137 138 138 138 139 139 139 139 138 137 136 135 133 131 129 128 128 127 124 121 117 114 112 111 109 108 107 106 105 105 104 103
102 102 102 103 104 106 108 109 110 109 106 102 101 104 108 109 111 112 113 110 109 110 112 113 113 115 117 119 121 122 122 122 120 119 121 124 125 125 126 128 129 131 131 132 132 133 134 134 134 135 135 136 137 137 138 138 139 139 139 139 139 138 138 137 136 134 132 130 129 129 128 125 122 118 115 113 112 111 110 109 107 106 106 105 104 102
103 103 104 105 108 109 110 112 113 112 109 105 106 109 111 112 113 115 116 114 111 113 115 117 118 119 121 122 123 123 124 123 122 122 124 126 127 128 129 130 131 132 133 133 134 134 134 135 135 136 137 137 138 138 139 139 139 139 139 138 138 138 138 137 135 132 131 130 129 128 126 122 119 117 115 114 112 111 110 108 107 106 105 104 103 101
108 109 111 113 115 116 117 117 117 116 112 110 111 113 115 116 117 119 120 118 115 116 119 120 121 122 123 124 124 125 125 126 126 126 127 128 129 130 131 131 133 133 134 135 135 135 135 136 137 137 138 139 139 139 139 139 139 138 138 138 138 138 137 135 133 131 130 130 128 126 123 120 118 116 115 114 112 111 109 108 106 105 104 103 101 100
116 117 119 120 121 121 121 121 120 118 115 113 113 115 118 119 121 122 121 120 119 120 122 123 124 124 125 126 127 127 128 129 129 130 130 130 131 132 133 134 134 135 135 135 136 136 137 138 139 140 140 140 140 139 139 138 138 138 138 138 137 137 135 133 131 130 130 129 126 124 121 119 117 116 114 113 112 110 108 106 105 104 102 102 100 99
121 122 123 123 122 122 123 123 123 121 116 115 116 119 121 122 123 123 124 124 125 125 126 126 127 127 128 129 129 129 131 131 132 132 133 133 133 133 134 135 135 135 136 136 137 138 139 140 141 141 140 139 139 139 139 139 138 138 138 137 137 136 133 131 131 130 129 127 124 122 120 118 116 115 113 112 110 108 106 105 103 102 101 101 100 99
123 124 124 123 124 124 126 127 127 124 120 120 122 124 124 125 127 128 129 129 129 129 129 130 130 131 131 131 131 132 133 133 134 134 134 134 134 134 135 135 136 136 137 138 139 139 140 140 140 140 139 138 138 139 139 138 138 137 137 136 136 134 132 132 131 129 127 125 123 121 119 117 115 113 112 110 108 106 105 103 102 101 100 100 99 98
124 124 124 124 126 128 129 129 129 127 125 126 127 128 129 130 132 133 133 133 133 133 133 133 133 134 134 133 133 133 133 133 134 135 136 136 136 136 135 136 136 137 138 139 139 140 140 139 139 139 138 138 138 138 138 138 137 136 135 136 135 134 133 132 130 128 126 124 122 120 118 116 114 112 110 107 105 104 103 102 101 100 99 98 98 97
125 125 126 127 128 130 130 130 130 130 129 130 130 131 133 134 135 136 136 136 136 136 136 136 135 135 135 135 134 134 134 134 135 136 137 137 136 136 136 136 137 137 137 138 139 139 139 139 138 138 138 138 138 137 137 136 135 135 135 135 135 134 133 131 128 126 124 122 120 118 116 113 111 109 107 105 104 102 102 101 100 99 98 97 97 95
127 127 127 128 130 131 131 131 131 131 131 132 132 134 135 136 137 138 138 138 138 138 137 136 136 135 136 136 136 136 136 137 137 137 137 137 136 136 136 136 137 137 138 138 139 139 139 138 138 137 137 137 136 136 135 134 134 134 135 135 134 133 131 128 126 124 122 120 118 115 113 111 109 107 105 103 102 101 100 100 100 98 97 96 95 94
129 128 129 130 131 131 131 131 131 132 133 134 136 137 138 139 139 140 139 139 138 137 137 136 136 137 137 137 137 137 138 138 138 137 137 137 137 137 137 137 137 138 138 139 139 138 138 137 137 136 136 136 135 135 134 133 133 134 134 134 132 131 128 126 124 122 119 117 115 112 110 108 106 104 103 101 100 99 99 99 99 98 97 96 95 93
130 130 131 132 132 132 132 131 132 133 135 137 138 140 140 141 140 140 139 138 138 137 137 138 138 138 138 138 138 138 138 138 138 138 138 138 137 137 138 137 137 138 138 138 137 137 136 136 136 136 136 136 136 135 134 133 133 134 133 131 130 128 126 124 121 119 116 114 112 110 108 106 104 102 101 100 98 98 98 98 98 98 97 95 94 92
132 132 133 134 134 134 134 134 135 136 137 138 139 140 141 141 141 140 139 139 139 139 140 140 140 139 139 139 139 139 139 138 139 139 139 139 138 137 137 137 136 136 136 136 136 136 135 136 136 136 136 136 136 135 134 134 133 132 130 128 127 125 123 121 118 115 113 111 109 107 106 104 102 101 99 98 97 96 96 96 97 97 96 95 94 92
133 133 135 136 136 136 136 136 137 138 139 139 140 140 141 142 141 141 141 141 141 141 141 141 141 140 139 139 139 139 138 138 138 139 138 137 137 136 136 136 136 136 136 136 136 136 136 136 136 136 135 136 136 136 134 133 131 129 127 125 124 122 119 117 114 112 110 108 107 105 104 103 101 99 98 97 96 95 95 95 95 96 95 95 93 92
133 135 138 138 138 138 138 138 139 140 141 141 141 142 142 142 142 143 143 143 142 142 142 141 140 139 139 139 139 138 138 138 138 138 137 136 136 136 136 136 135 136 136 137 138 137 137 136 136 135 135 136 135 134 131 130 128 127 125 123 120 118 116 114 112 110 108 107 105 104 103 101 100 98 97 95 95 94 94 94 94 94 94 93 93 91
Wind_Direction
259 260 262 261 260 262 264 265 264 264 264 265 265 266 267 268 268 268 269 269 269 270 272 272 271 271 271 271 272 272 272 272 273 274 274 274 274 274 275 276 276 276 276 276 276 276 277 278 278 278 279 279 280 280 281 281 282 283 284 284 285 286 286 286 286 286 286 285 285 284 284 284 283 283 283 283 283 283 283 283 283 282 282 282 282 282
260 260 260 260 261 263 264 264 263 263 263 264 264 264 264 266 267 268 269 270 271 270 270 271 271 272 272 272 272 272 273 273 274 274 274 274 274 275 276 276 276 277 277 278 278 279 279 279 279 279 280 280 281 281 282 283 284 284 285 285 286 286 286 286 285 285 285 284 283 283 282 282 282 281 281 281 281 281 281 282 282 282 282 282 282 282
259 260 260 261 263 263 263 264 264 263 264 264 264 265 265 265 266 267 269 271 272 271 269 270 271 272 273 273 273 274 274 274 274 274 274 275 275 276 276 277 278 278 279 279 280 280 280 280 280 281 282 282 283 284 284 285 285 286 286 286 287 287 286 286 286 285 285 284 283 283 283 283 282 282 282 282 282 281 281 282 282 282 281 281 281 281
258 259 261 262 263 263 263 263 264 263 263 264 265 266 265 265 266 268 270 271 271 270 270 270 271 273 273 273 273 274 274 275 275 275 275 276 276 277 277 278 279 280 280 280 280 280 280 281 282 282 283 284 284 285 285 286 287 287 287 288 288 287 287 287 286 286 285 285 284 284 284 284 283 283 283 283 283 283 282 282 282 281 281 281 280 280
258 259 262 263 263 263 263 263 264 264 263 264 265 266 266 266 268 269 269 268 269 270 271 270 270 272 273 272 273 273 274 274 275 276 276 277 277 278 279 280 281 281 281 281 280 281 281 282 282 283 284 284 285 286 287 288 288 288 288 288 288 287 287 286 286 285 285 285 284 284 284 284 284 284 284 284 284 284 283 283 282 281 280 280 279 279
259 260 262 263 263 263 264 264 265 264 263 263 265 267 267 267 268 269 268 267 268 270 270 269 270 271 272 273 273 273 274 274 275 276 276 277 278 279 280 281 282 282 281 280 280 280 281 282 283 284 284 285 286 287 287 288 288 288 287 287 287 286 286 286 285 285 285 285 284 284 284 284 284 284 285 285 285 285 285 284 283 282 281 280 279 278
260 261 261 262 263 263 264 265 265 265 263 263 264 266 266 267 267 268 268 268 267 268 269 270 270 269 270 273 273 273 274 275 275 276 276 277 278 280 281 281 281 281 280 279 279 280 281 282 283 284 285 286 286 287 287 287 287 287 286 286 286 286 286 286 286 286 286 286 286 286 287 287 287 287 287 287 287 287 287 287 286 284 282 281 280 279
260 260 260 262 263 263 265 265 265 265 265 265 265 264 265 266 266 265 266 266 266 266 267 270 271 269 270 272 273 273 275 276 276 276 277 278 279 280 281 281 280 279 278 278 279 280 281 282 282 283 284 285 286 286 286 286 286 285 285 285 286 286 286 286 287 287 288 288 289 289 290 290 290 289 289 289 288 288 288 288 288 287 285 284 283 282
260 261 262 262 262 263 265 265 265 266 267 267 266 265 266 266 265 265 264 265 266 266 268 270 271 270 269 271 273 274 275 276 276 277 278 279 280 281 281 280 278 277 276 277 278 279 279 280 281 282 283 284 285 285 285 284 284 284 284 285 285 286 286 287 287 287 288 289 289 289 289 289 289 289 289 289 289 289 289 289 288 287 286 284 284 283
262 262 262 262 263 264 264 264 265 267 268 267 266 266 266 266 266 266 266 266 266 267 269 269 269 268 267 269 274 275 275 276 277 278 279 280 281 281 280 278 276 276 276 276 277 278 278 279 280 281 282 283 283 283 283 283 283 283 283 284 285 285 286 286 286 287 287 288 288 288 289 289 289 289 289 289 289 289 288 288 287 287 285 284 283 282
263 262 262 263 263 263 264 264 265 266 267 266 265 266 266 267 268 268 269 269 268 268 268 267 266 267 267 270 274 277 276 276 277 278 278 280 281 281 279 276 275 275 275 276 277 277 277 278 279 280 281 281 282 282 282 282 282 283 283 284 284 284 284 285 285 286 286 286 286 287 287 288 288 288 289 288 288 287 286 286 285 285 284 282 282 281
262 261 262 263 263 264 264 265 265 265 265 265 265 266 266 267 268 269 269 269 269 268 266 266 266 268 270 271 273 275 277 276 276 277 278 280 280 279 277 275 274 274 274 275 276 277 278 279 279 280 281 281 282 282 282 282 282 282 283 283 283 283 283 284 284 284 285 285 285 286 286 287 287 288 288 287 286 285 285 284 283 283 283 282 282 281
261 262 262 263 264 264 264 263 264 264 264 264 265 266 267 267 267 268 268 268 268 267 266 267 268 270 273 272 270 272 275 276 277 278 279 280 279 278 277 275 273 273 273 275 276 277 279 280 280 281 281 282 282 282 282 282 282 283 283 282 282 282 283 283 283 284 284 284 285 285 286 286 287 287 286 286 285 284 283 283 282 282 282 281 281 281
261 261 262 262 262 263 263 263 264 264 264 265 266 266 267 268 268 268 267 267 268 268 268 268 270 272 273 272 270 269 272 276 278 279 279 279 278 278 277 275 274 273 274 275 277 278 279 280 281 281 281 281 282 282 282 282 283 283 283 283 283 283 283 283 283 283 283 284 285 285 286 286 285 285 285 285 284 283 282 282 282 282 281 281 282 282
261 261 262 262 262 263 264 264 264 265 265 266 266 266 267 268 268 266 266 267 268 269 269 270 272 273 272 271 271 271 272 274 276 277 277 277 276 276 275 274 273 274 274 276 277 278 278 279 280 280 280 280 280 281 281 281 282 282 282 282 283 283 283 283 283 283 284 284 285 285 285 285 285 285 285 285 284 283 282 281 281 282 282 282 283 283
262 262 262 263 264 264 265 265 265 265 265 266 266 267 268 267 266 265 266 267 268 268 269 271 272 272 271 270 272 274 274 273 272 273 274 274 273 272 272 271 271 272 273 274 275 276 276 277 278 278 278 279 279 280 280 280 281 281 282 282 282 283 283 284 284 284 285 285 285 285 285 285 285 285 285 284 283 282 282 282 282 283 283 284 285 286
261 262 262 264 264 265 265 265 265 265 265 265 266 266 266 265 265 266 266 267 267 268 269 270 270 270 270 271 273 274 273 273 273 273 273 273 272 271 270 270 270 271 271 272 273 274 275 276 276 277 277 278 278 279 279 280 280 281 282 283 283 284 285 285 286 286 286 286 285 285 285 285 285 284 284 283 283 282 282 282 283 284 285 286 288 289
262 262 262 263 263 264 264 265 265 265 266 265 265 265 264 264 265 266 266 267 268 268 268 268 269 270 271 272 272 272 273 274 275 275 274 273 271 271 271 271 271 271 271 272 273 274 275 275 276 276 277 278 278 279 279 280 282 283 284 284 285 286 286 286 286 286 286 286 285 285 284 284 283 283 283 282 282 282 283 284 285 286 288 289 290 290
263 261 260 262 263 263 264 264 265 266 265 263 262 262 263 265 266 267 267 267 267 268 268 268 268 269 271 272 273 274 275 276 277 276 274 273 272 272 272 272 272 272 272 273 273 274 274 275 275 276 277 278 279 280 281 282 283 285 286 286 287 287 287 286 286 286 285 285 284 284 283 283 282 282 282 282 283 284 284 286 287 289 290 291 291 291
263 262 261 261 263 263 263 264 264 263 263 262 261 263 264 266 266 267 267 267 267 268 268 267 267 269 272 274 275 276 277 279 279 277 275 274 274 274 274 274 273 273 273 274 274 274 274 275 276 277 278 279 280 281 283 284 285 286 287 287 287 287 286 286 285 285 284 284 283 282 282 282 283 283 283 284 285 286 287 289 290 291 292 292 292 291
263 263 261 260 262 263 263 264 263 261 261 262 263 264 265 266 266 266 267 267 267 266 266 267 268 270 273 274 275 277 279 280 279 277 277 277 277 276 276 275 275 275 275 275 275 275 275 276 277 278 279 280 281 283 284 285 286 286 287 286 286 285 285 284 284 283 283 283 283 283 283 284 285 285 286 287 289 290 292 293 293 293 292 291 290 289
263 263 262 261 262 264 264 264 263 262 261 262 262 263 264 266 267 267 266 265 266 267 268 269 269 270 270 271 273 277 280 280 279 279 279 280 280 279 278 278 278 278 278 277 276 276 277 277 278 279 280 281 282 282 283 284 285 285 285 284 284 283 283 282 282 283 283 283 284 285 286 287 288 289 291 292 294 294 294 294 293 292 291 290 289 288
266 265 265 263 262 263 263 263 263 263 263 263 264 265 265 265 266 265 265 266 267 269 271 270 269 269 269 270 272 275 277 278 278 280 281 281 281 280 279 279 280 279 279 278 277 277 278 278 279 279 280 280 281 282 283 284 284 284 284 283 283 282 282 283 283 284 284 285 287 288 290 291 292 294 295 295 296 295 295 294 293 291 291 290 290 290
267 267 266 265 263 262 263 263 264 266 266 266 266 265 264 264 265 266 267 268 269 270 271 272 271 270 270 270 271 272 273 275 277 280 281 282 281 280 280 280 279 278 278 277 277 277 277 277 278 278 279 280 280 281 282 283 283 283 283 283 283 283 284 284 285 286 287 289 290 291 293 294 295 296 296 296 295 295 294 293 293 292 292 292 292 292
266 267 268 267 265 264 264 264 265 266 266 265 264 264 265 266 267 268 269 268 268 270 271 272 272 271 270 269 269 270 271 274 276 278 280 281 281 281 279 278 277 276 276 276 275 276 276 276 277 278 278 279 280 281 282 282 282 282 283 283 284 285 286 287 288 289 291 292 293 294 295 296 296 296 295 295 294 294 294 294 294 294 294 294 294 293
265 266 267 268 268 268 267 265 265 264 264 264 264 265 266 267 267 268 269 268 269 270 270 271 272 272 271 269 269 268 270 272 274 276 277 278 279 279 278 276 275 274 273 274 274 274 275 275 276 277 278 279 280 280 281 281 282 282 283 284 286 288 290 291 292 293 294 295 295 296 297 297 296 296 295 295 295 295 296 296 297 297 296 296 295 294
262 264 266 268 270 269 268 267 266 265 265 265 266 266 267 268 269 269 269 269 270 269 269 271 273 273 272 270 268 268 269 271 274 275 276 277 278 277 275 274 273 273 273 274 274 275 275 276 277 277 278 278 279 280 280 281 283 284 287 289 291 293 294 295 296 296 297 297 298 298 298 298 297 297 298 298 298 298 299 299 299 299 298 297 296 295
260 261 263 266 267 268 269 269 268 268 268 268 268 268 268 269 270 270 270 271 272 271 271 272 273 273 272 271 269 268 268 269 271 272 273 275 276 275 273 273 273 273 274 275 275 276 276 277 277 278 279 280 281 283 284 286 288 290 292 294 296 297 298 298 298 298 299 300 300 300 300 300 300 300 301 301 301 301 301 301 300 299 298 297 296 295
259 259 260 262 264 265 267 268 269 269 269 270 270 270 269 270 270 270 271 272 273 273 273 274 273 273 273 272 271 271 270 269 268 269 269 271 272 273 272 272 273 273 274 275 276 277 278 280 281 282 284 285 287 290 292 294 296 297 298 298 299 299 299 299 300 300 301 302 302 302 302 302 303 303 302 302 302 302 302 301 300 299 298 297 296 296
260 259 259 260 261 262 263 264 266 267 268 269 270 270 270 271 270 271 271 272 273 273 273 273 272 272 272 274 274 273 272 271 271 270 270 271 272 273 274 276 277 278 279 279 281 283 285 287 288 289 291 292 294 296 298 299 299 300 300 300 300 300 301 301 302 303 303 303 304 304 304 304 304 304 304 303 303 303 302 301 300 299 298 297 297 296
261 261 260 260 261 261 262 263 265 265 266 267 268 269 271 271 272 272 274 275 275 275 275 275 274 274 275 277 278 277 277 277 277 277 277 277 277 278 279 281 282 284 285 287 289 291 292 293 294 295 297 298 299 300 300 300 300 301 301 301 301 302 303 303 303 304 304 304 305 304 304 305 304 304 304 304 304 303 302 301 300 299 298 298 297 297
264 265 265 265 265 264 264 265 266 267 268 268 268 271 273 273 274 276 277 277 279 280 280 279 279 280 280 281 281 282 283 283 282 282 282 282 283 283 284 286 287 289 292 293 295 296 297 297 298 299 300 300 300 301 301 300 301 301 301 302 302 303 304 304 304 304 304 305 304 304 305 304 305 305 305 305 304 302 301 300 300 299 299 298 297 297
270 271 272 272 273 272 271 271 272 272 271 270 272 275 276 276 277 278 279 280 281 282 282 281 282 282 282 282 282 283 283 283 284 284 285 285 286 288 289 291 294 295 296 297 297 298 298 299 299 300 300 300 300 300 300 301 301 302 302 303 303 304 304 303 303 304 304 304 304 304 304 305 305 305 305 304 303 302 301 300 300 299 299 298 297 297
272 273 274 275 276 276 276 276 276 275 275 276 278 279 278 278 279 280 280 281 281 281 281 281 281 281 281 282 283 283 283 284 286 287 288 290 292 293 295 296 297 297 297 297 297 297 298 299 299 299 300 300 300 300 301 301 302 302 302 303 303 303 303 303 303 303 304 304 304 304 305 305 306 305 304 303 302 301 301 300 300 299 299 298 297 297
274 275 275 275 276 276 276 276 276 277 279 280 280 279 279 280 281 281 280 280 280 280 280 280 281 282 284 284 285 285 286 288 289 291 292 294 295 295 296 296 296 296 296 296 296 297 298 298 299 299 299 300 300 300 301 301 301 302 302 302 302 302 302 302 303 303 303 303 304 304 305 305 305 304 303 302 302 301 301 300 300 299 299 298 297 297
275 276 276 276 276 276 276 276 276 277 278 279 280 281 282 282 282 281 281 281 281 282 282 283 285 286 287 288 288 289 289 289 290 292 294 294 293 293 294 294 294 294 294 295 296 296 297 298 298 299 299 299 299 300 300 300 300 300 300 300 300 301 301 302 302 303 303 303 304 305 305 304 303 303 303 302 302 301 301 300 300 299 299 298 298 297
272 273 274 275 275 275 275 276 276 276 277 279 281 282 281 281 281 281 282 283 284 285 285 286 287 288 288 288 288 288 289 289 291 292 292 291 291 292 293 293 293 293 294 295 295 296 296 297 297 298 298 298 298 298 299 299 299 299 299 299 299 300 300 301 302 302 303 303 304 304 304 303 303 303 302 302 301 301 301 300 300 300 299 299 298 298
270 271 271 272 273 273 274 275 276 277 278 280 280 279 279 280 280 281 281 283 284 285 285 286 286 286 286 286 287 288 288 289 290 290 289 289 290 291 292 292 292 293 293 294 295 295 296 296 296 296 296 297 297 297 297 298 298 298 298 298 299 300 300 301 301 302 303 304 304 303 303 303 303 302 302 302 301 301 301 300 300 300 299 299 298 298
270 270 270 270 272 273 274 274 275 277 278 279 278 278 279 280 280 280 281 282 283 284 283 283 284 284 285 286 287 288 288 288 289 288 288 289 290 291 291 291 292 292 293 293 294 294 294 295 295 295 295 296 296 296 296 296 297 297 298 298 299 299 300 300 301 302 303 303 303 303 303 302 302 302 302 302 301 301 300 300 300 299 299 298 298 298
269 269 270 271 272 274 274 274 275 276 277 278 278 278 279 279 279 279 280 281 282 282 282 282 283 284 285 286 286 286 287 287 287 288 288 289 290 290 290 291 291 292 292 293 293 293 293 294 294 294 295 295 295 295 296 296 296 297 297 298 299 299 299 300 301 302 303 302 302 302 302 302 302 302 302 301 301 300 300 300 300 299 299 298 298 298
266 267 268 270 271 272 273 274 274 275 276 277 277 277 277 277 277 278 279 281 281 281 281 282 283 284 284 284 285 285 286 287 287 288 288 289 289 289 290 290 290 291 291 291 292 292 293 293 293 294 294 294 295 295 295 296 296 297 297 298 298 299 299 300 301 302 302 302 302 302 301 301 302 302 301 301 300 300 300 300 299 299 298 298 298 298
265 266 267 268 270 271 272 272 273 274 275 275 275 275 275 275 276 277 278 279 279 279 280 281 282 282 282 283 284 285 286 286 287 287 287 288 288 288 289 289 290 290 290 291 291 291 292 292 293 293 293 294 294 295 295 295 296 296 297 298 298 299 299 301 301 301 301 301 301 301 301 301 301 301 300 300 300 300 299 299 299 298 298 298 297 297
265 266 267 268 270 270 271 271 272 273 274 273 273 273 274 275 276 276 276 277 278 278 279 280 280 281 281 282 284 284 285 286 286 286 286 287 287 288 288 288 289 289 290 290 290 291 291 292 292 292 293 293 294 294 294 295 295 296 297 297 298 299 300 300 300 301 301 301 300 300 300 300 300 300 300 300 299 299 299 298 298 298 297 297 297 296
266 267 268 269 270 270 270 271 272 273 273 272 272 273 273 274 274 275 275 276 277 277 278 279 280 281 282 283 283 284 284 284 284 285 286 286 287 287 288 288 288 289 289 289 290 290 291 291 291 292 292 292 292 293 293 294 295 296 297 297 298 299 300 300 300 300 300 300 300 300 300 300 299 299 299 299 299 299 298 298 297 297 296 296 296 296
267 268 269 269 270 270 271 272 272 273 273 273 273 273 273 273 274 275 275 276 277 277 278 279 280 281 282 282 282 282 283 283 284 285 285 286 286 287 287 287 288 288 288 289 289 289 289 290 290 290 291 291 291 292 293 294 295 296 297 297 298 299 299 299 299 299 299 299 299 299 299 299 299 299 299 298 298 298 297 297 296 296 295 295 295 295
268 268 269 270 271 271 271 272 272 273 272 272 272 273 273 273 274 274 275 276 277 278 279 280 280 280 280 281 281 282 283 283 284 284 285 285 285 286 286 287 287 287 287 288 288 288 289 289 289 290 290 291 291 292 293 294 295 296 297 297 298 298 298 298 298 298 298 298 298 298 298 298 298 298 298 298 298 297 297 296 296 295 295 294 295 295
268 268 269 270 271 271 271 272 272 272 272 272 272 273 273 273 274 275 276 277 278 278 279 279 279 279 280 280 281 282 283 283 283 283 284 284 285 285 285 286 286 286 287 287 287 288 288 289 289 290 290 291 292 293 294 295 296 296 297 297 297 297 297 298 298 297 297 298 298 298 298 297 297 297 297 297 297 297 296 295 295 295 294 294 294 295
267 268 269 270 271 271 271 271 271 271 271 271 272 273 274 274 275 276 277 277 278 278 278 278 279 279 280 281 282 282 282 282 283 283 283 284 284 284 285 285 285 286 286 286 287 288 288 289 289 290 291 292 293 293 294 295 296 296 296 296 296 297 297 297 297 297 297 297 297 297 297 297 297 297 297 297 296 296 295 295 295 294 294 294 295 295
268 269 270 270 270 270 270 270 270 270 271 272 272 273 274 275 275 276 276 277 277 277 278 278 279 280 280 281 281 281 281 282 282 282 283 283 284 284 285 285 285 286 286 286 287 288 288 289 289 290 291 292 293 294 294 295 295 295 295 296 296 296 296 296 296 296 296 297 297 296 296 296 296 296 296 296 296 295 294 294 294 294 294 295 295 295
268 268 269 269 269 269 270 270 270 270 271 271 272 273 273 274 275 276 276 276 277 277 277 278 279 280 280 280 281 281 281 281 282 282 283 283 284 284 284 285 285 285 286 286 287 288 289 289 290 290 291 292 293 293 294 294 295 295 295 295 295 295 295 295 295 296 296 296 296 296 296 296 296 296 295 295 295 294 294 293 293 294 294 295 295 295
267 267 268 268 268 269 269 269 270 270 271 271 272 272 273 274 275 275 275 276 276 277 278 279 279 280 280 280 280 281 281 281 282 282 283 283 283 283 284 284 285 285 286 287 287 288 289 289 290 291 291 292 292 293 293 294 294 294 294 294 294 294 294 295 295 296 296 296 296 296 295 295 295 295 295 294 293 293 293 293 293 293 294 294 294 294
Height
10727 10732 10733 10727 10723 10726 10731 10732 10733 10733 10732 10733 10734 10735 10734 10733 10732 10732 10735 10737 10738 10740 10738 10737 10736 10735 10737 10740 10737 10737 10738 10737 10737 10737 10736 10736 10735 10734 10734 10734 10733 10733 10732 10732 10732 10731 10731 10731 10730 10730 10729 10728 10728 10727 10726 10725 10725 10724 10723 10722 10722 10721 10720 10718 10717 10716 10714 10713 10712 10711 10710 10709 10708 10707 10706 10704 10703 10702 10700 10699 10697 10696 10694 10692 10691 10689
10722 10728 10725 10718 10719 10723 10726 10726 10726 10727 10727 10728 10728 10729 10730 10729 10727 10727 10730 10731 10732 10735 10734 10731 10731 10730 10732 10734 10732 10731 10732 10732 10732 10731 10731 10730 10729 10729 10729 10728 10728 10727 10727 10726 10726 10726 10725 10725 10725 10724 10723 10722 10722 10721 10720 10719 10719 10718 10717 10716 10715 10714 10713 10712 10711 10710 10708 10707 10706 10705 10704 10703 10702 10700 10699 10698 10696 10695 10693 10692 10690 10689 10687 10685 10683 10681
10717 10721 10717 10713 10716 10718 10720 10720 10720 10722 10722 10722 10722 10723 10725 10723 10721 10722 10726 10727 10726 10728 10728 10726 10725 10725 10726 10727 10726 10726 10726 10726 10726 10725 10725 10725 10724 10724 10723 10723 10722 10722 10721 10721 10720 10720 10719 10719 10718 10718 10717 10716 10716 10715 10714 10713 10712 10711 10710 10709 10708 10707 10706 10705 10704 10703 10702 10701 10700 10699 10698 10697 10695 10694 10692 10691 10689 10688 10686 10685 10683 10681 10679 10677 10675 10673
10712 10715 10711 10709 10711 10712 10713 10714 10714 10716 10716 10717 10717 10718 10719 10716 10715 10719 10722 10722 10720 10720 10722 10720 10720 10721 10721 10721 10720 10720 10720 10719 10720 10719 10718 10718 10718 10718 10717 10717 10717 10716 10715 10715 10715 10714 10714 10713 10712 10712 10711 10710 10710 10709 10708 10707 10706 10705 10704 10702 10701 10700 10698 10697 10696 10696 10695 10694 10693 10691 10690 10689 10688 10686 10685 10683 10681 10680 10678 10677 10675 10673 10671 10669 10667 10665
10706 10710 10707 10704 10705 10705 10707 10709 10708 10709 10711 10711 10712 10712 10712 10711 10711 10714 10717 10716 10714 10715 10716 10714 10716 10717 10714 10715 10714 10714 10714 10713 10713 10713 10712 10712 10712 10711 10711 10711 10710 10710 10709 10709 10709 10708 10707 10707 10706 10705 10705 10704 10703 10702 10701 10700 10699 10698 10697 10695 10694 10693 10691 10690 10689 10688 10687 10686 10685 10683 10682 10681 10680 10678 10676 10675 10673 10672 10670 10668 10666 10664 10662 10660 10658 10655
10701 10706 10703 10697 10698 10699 10701 10703 10702 10702 10703 10705 10708 10707 10704 10705 10707 10707 10709 10710 10710 10711 10710 10708 10712 10713 10709 10708 10709 10708 10708 10708 10707 10707 10706 10706 10705 10705 10705 10704 10704 10704 10703 10703 10703 10702 10701 10700 10700 10699 10698 10697 10696 10695 10694 10693 10692 10690 10689 10688 10687 10686 10685 10684 10682 10681 10679 10678 10677 10675 10674 10673 10671 10670 10668 10667 10665 10663 10661 10659 10657 10655 10652 10650 10648 10645
10697 10699 10696 10692 10692 10694 10695 10698 10696 10693 10695 10701 10705 10702 10697 10699 10702 10702 10703 10703 10705 10707 10704 10702 10705 10708 10705 10702 10702 10702 10702 10702 10701 10700 10700 10699 10699 10699 10698 10698 10698 10697 10697 10697 10696 10695 10695 10694 10693 10692 10692 10691 10690 10688 10687 10686 10684 10683 10682 10681 10680 10679 10678 10676 10675 10673 10672 10670 10669 10667 10666 10665 10663 10661 10659 10657 10655 10653 10651 10649 10646 10644 10642 10639 10637 10634
10692 10690 10689 10687 10686 10688 10689 10691 10689 10685 10688 10696 10699 10694 10692 10693 10695 10696 10697 10697 10699 10701 10701 10699 10697 10700 10702 10698 10695 10696 10697 10695 10694 10694 10693 10693 10692 10692 10692 10691 10691 10691 10691 10690 10690 10689 10688 10687 10686 10686 10685 10684 10683 10681 10680 10679 10678 10676 10675 10674 10673 10672 10670 10668 10667 10665 10663 10662 10660 10659 10657 10656 10654 10652 10650 10648 10645 10643 10641 10638 10636 10633 10631 10628 10625 10623
10685 10683 10683 10681 10680 10683 10683 10682 10681 10680 10683 10690 10690 10687 10687 10687 10687 10689 10690 10691 10692 10694 10697 10696 10690 10692 10696 10693 10688 10690 10691 10688 10687 10687 10687 10686 10686 10685 10685 10685 10684 10684 10684 10683 10683 10682 10681 10680 10679 10679 10678 10677 10676 10674 10673 10672 10670 10669 10668 10666 10665 10663 10662 10660 10658 10656 10654 10653 10652 10650 10648 10646 10644 10642 10640 10638 10635 10633 10630 10628 10625 10623 10620 10617 10614 10612
10679 10678 10674 10673 10676 10677 10676 10674 10674 10675 10678 10682 10681 10680 10680 10680 10681 10682 10683 10686 10686 10690 10693 10689 10683 10683 10689 10688 10684 10683 10684 10682 10681 10681 10680 10679 10679 10678 10678 10678 10677 10677 10677 10676 10676 10675 10674 10673 10672 10672 10671 10670 10669 10667 10666 10664 10663 10661 10659 10658 10656 10654 10652 10650 10648 10647 10645 10644 10642 10640 10638 10636 10634 10632 10629 10627 10624 10622 10619 10617 10615 10612 10610 10607 10604 10601
10671 10670 10667 10668 10669 10669 10668 10668 10669 10670 10671 10673 10673 10673 10673 10674 10674 10675 10678 10678 10680 10685 10686 10680 10675 10676 10682 10687 10682 10675 10674 10675 10675 10673 10673 10672 10672 10672 10670 10670 10670 10670 10670 10669 10669 10668 10667 10666 10666 10665 10664 10662 10661 10659 10657 10656 10654 10652 10651 10649 10647 10644 10642 10641 10639 10638 10636 10635 10633 10631 10629 10627 10624 10622 10619 10616 10614 10611 10608 10606 10604 10601 10598 10596 10593 10590
10660 10661 10662 10662 10661 10662 10662 10662 10662 10663 10664 10665 10665 10666 10667 10668 10668 10670 10671 10671 10673 10678 10677 10671 10668 10670 10678 10684 10679 10670 10665 10667 10668 10666 10666 10666 10665 10664 10663 10663 10663 10663 10663 10662 10661 10660 10659 10659 10658 10657 10656 10654 10652 10650 10649 10647 10645 10644 10642 10640 10638 10636 10634 10632 10631 10629 10627 10626 10624 10622 10619 10617 10614 10612 10609 10606 10603 10600 10598 10595 10592 10590 10587 10584 10581 10578
10652 10654 10656 10656 10655 10655 10654 10654 10655 10656 10656 10657 10659 10660 10660 10660 10662 10663 10664 10664 10665 10668 10669 10665 10663 10667 10674 10675 10672 10667 10660 10658 10660 10659 10659 10658 10657 10656 10655 10655 10655 10655 10655 10655 10654 10653 10652 10651 10649 10648 10646 10645 10643 10641 10639 10638 10636 10635 10633 10631 10629 10627 10625 10624 10622 10620 10618 10616 10614 10612 10609 10607 10604 10602 10599 10596 10593 10590 10587 10584 10581 10578 10575 10571 10568 10564
10646 10647 10649 10648 10648 10646 10645 10647 10649 10649 10650 10651 10653 10654 10653 10653 10656 10656 10655 10656 10658 10660 10662 10660 10658 10664 10669 10665 10661 10661 10658 10653 10652 10652 10651 10650 10649 10648 10647 10646 10647 10647 10647 10647 10646 10645 10644 10642 10641 10639 10638 10636 10635 10633 10631 10629 10627 10625 10623 10621 10619 10618 10616 10614 10612 10610 10608 10606 10604 10601 10599 10597 10594 10591 10588 10585 10582 10579 10575 10572 10569 10565 10561 10558 10554 10550
10638 10641 10643 10640 10640 10640 10639 10641 10643 10642 10643 10646 10646 10646 10647 10647 10647 10647 10647 10649 10651 10652 10654 10654 10655 10659 10661 10655 10650 10652 10654 10651 10647 10645 10644 10643 10641 10640 10639 10638 10639 10639 10639 10639 10638 10637 10635 10634 10633 10631 10630 10629 10627 10625 10623 10621 10619 10617 10615 10613 10611 10609 10607 10605 10602 10600 10598 10596 10594 10591 10589 10586 10583 10580 10577 10574 10571 10567 10563 10560 10556 10551 10547 10543 10539 10535
10630 10635 10637 10632 10632 10634 10633 10634 10636 10636 10637 10639 10639 10640 10642 10638 10634 10637 10641 10643 10644 10645 10648 10649 10649 10651 10650 10647 10644 10644 10645 10643 10640 10640 10638 10637 10635 10633 10632 10632 10632 10633 10633 10632 10631 10629 10628 10627 10625 10623 10622 10620 10619 10617 10615 10612 10609 10608 10606 10604 10602 10600 10598 10595 10593 10591 10588 10586 10583 10581 10578 10575 10572 10569 10566 10562 10559 10555 10551 10546 10542 10537 10533 10528 10523 10518
10623 10627 10630 10626 10626 10628 10626 10627 10628 10628 10632 10633 10633 10635 10633 10626 10625 10631 10635 10636 10636 10638 10642 10643 10642 10641 10640 10641 10641 10637 10634 10632 10632 10633 10631 10629 10627 10626 10626 10626 10627 10627 10626 10625 10623 10621 10620 10618 10616 10614 10613 10612 10610 10607 10604 10601 10599 10598 10596 10594 10592 10590 10587 10585 10583 10580 10577 10574 10572 10569 10566 10563 10560 10557 10554 10550 10546 10542 10537 10533 10528 10523 10518 10512 10507 10502
10617 10620 10623 10619 10619 10621 10618 10619 10622 10622 10626 10627 10626 10626 10621 10617 10622 10625 10626 10629 10629 10629 10634 10636 10635 10634 10633 10635 10634 10629 10626 10625 10625 10624 10622 10619 10617 10617 10619 10619 10619 10619 10618 10616 10615 10613 10611 10608 10606 10605 10603 10602 10599 10596 10593 10591 10589 10587 10585 10583 10581 10579 10576 10573 10571 10568 10565 10563 10560 10557 10554 10551 10548 10545 10541 10537 10533 10528 10523 10518 10513 10508 10502 10496 10490 10485
10608 10610 10615 10613 10612 10614 10611 10613 10617 10618 10618 10618 10616 10615 10612 10613 10617 10617 10617 10621 10621 10620 10625 10628 10628 10627 10626 10627 10626 10622 10620 10619 10618 10615 10611 10609 10609 10610 10611 10611 10611 10610 10608 10607 10606 10604 10601 10598 10596 10595 10593 10591 10588 10585 10583 10580 10578 10576 10574 10572 10569 10566 10564 10561 10558 10555 10553 10550 10547 10544 10541 10538 10535 10531 10527 10523 10518 10514 10509 10503 10498 10492 10486 10479 10473 10468
10598 10599 10607 10608 10605 10604 10604 10607 10611 10610 10607 10606 10608 10609 10608 10609 10610 10609 10610 10612 10612 10613 10615 10616 10619 10621 10620 10621 10619 10615 10613 10612 10609 10604 10600 10600 10602 10602 10602 10602 10601 10600 10599 10598 10596 10593 10590 10588 10587 10585 10583 10580 10577 10574 10572 10569 10568 10566 10563 10560 10557 10553 10550 10548 10545 10542 10539 10537 10534 10531 10528 10524 10521 10517 10513 10508 10503 10498 10493 10488 10482 10476 10469 10463 10457 10451
10589 10589 10596 10600 10597 10595 10599 10602 10601 10600 10598 10599 10602 10604 10603 10602 10601 10602 10604 10603 10602 10603 10605 10606 10612 10617 10617 10614 10611 10607 10605 10603 10597 10592 10590 10592 10593 10593 10593 10592 10591 10591 10591 10588 10586 10582 10580 10578 10577 10575 10572 10569 10566 10563 10560 10559 10557 10555 10551 10548 10544 10541 10538 10535 10532 10529 10526 10523 10520 10517 10514 10510 10506 10502 10497 10492 10487 10482 10477 10471 10466 10459 10453 10447 10440 10434
10579 10579 10583 10590 10592 10590 10592 10593 10590 10590 10593 10593 10595 10598 10598 10595 10593 10592 10593 10593 10591 10592 10596 10598 10604 10611 10610 10606 10604 10600 10597 10592 10586 10582 10582 10583 10584 10583 10581 10581 10582 10581 10580 10577 10574 10571 10569 10568 10566 10564 10560 10557 10554 10552 10550 10548 10546 10543 10539 10536 10532 10528 10525 10522 10519 10516 10513 10509 10506 10503 10499 10494 10490 10486 10481 10476 10470 10465 10460 10455 10449 10443 10436 10429 10423 10416
10568 10569 10572 10578 10583 10582 10580 10582 10581 10582 10586 10587 10589 10593 10590 10586 10582 10579 10580 10584 10584 10586 10588 10587 10592 10602 10601 10596 10596 10593 10587 10582 10576 10573 10574 10574 10573 10572 10570 10571 10572 10570 10568 10565 10562 10560 10559 10557 10555 10552 10549 10546 10543 10541 10539 10537 10534 10530 10527 10523 10520 10516 10512 10509 10506 10502 10498 10495 10492 10487 10483 10479 10474 10470 10465 10459 10454 10448 10443 10438 10431 10425 10418 10411 10404 10398
10558 10559 10560 10564 10570 10571 10570 10573 10575 10576 10579 10582 10583 10581 10576 10574 10572 10569 10572 10576 10577 10581 10580 10575 10581 10591 10591 10587 10586 10582 10577 10573 10568 10566 10565 10563 10562 10561 10561 10562 10561 10558 10556 10553 10551 10550 10548 10546 10543 10540 10538 10535 10533 10530 10528 10525 10521 10518 10514 10510 10506 10503 10499 10496 10491 10487 10484 10481 10476 10471 10467 10463 10459 10454 10448 10442 10437 10431 10426 10419 10413 10406 10399 10392 10386 10379
10549 10549 10549 10549 10555 10562 10564 10567 10569 10570 10571 10571 10570 10567 10565 10566 10563 10562 10564 10564 10567 10576 10573 10567 10572 10578 10578 10578 10575 10570 10566 10563 10559 10559 10557 10553 10551 10552 10552 10552 10549 10547 10545 10543 10541 10539 10537 10534 10531 10528 10526 10523 10521 10518 10515 10511 10508 10504 10501 10497 10493 10489 10485 10481 10476 10473 10470 10465 10460 10456 10452 10448 10443 10437 10431 10426 10420 10414 10407 10401 10394 10387 10380 10374 10367 10360
10542 10542 10539 10539 10545 10551 10553 10556 10560 10561 10559 10558 10559 10559 10558 10557 10555 10555 10553 10551 10560 10568 10563 10560 10564 10562 10563 10567 10563 10558 10556 10552 10550 10550 10548 10545 10544 10544 10543 10541 10539 10537 10535 10533 10532 10529 10525 10522 10519 10517 10515 10512 10509 10505 10501 10498 10494 10491 10488 10484 10479 10475 10470 10465 10461 10457 10454 10449 10445 10440 10436 10431 10425 10419 10414 10408 10402 10396 10390 10383 10376 10370 10363 10356 10348 10341
10533 10533 10533 10535 10537 10537 10539 10544 10548 10549 10549 10548 10550 10550 10548 10548 10547 10544 10541 10543 10551 10551 10551 10557 10554 10546 10550 10552 10547 10547 10545 10541 10541 10540 10536 10536 10536 10534 10532 10530 10528 10527 10525 10523 10520 10516 10512 10510 10508 10505 10502 10500 10497 10492 10488 10485 10481 10478 10474 10469 10464 10459 10455 10450 10445 10441 10437 10433 10429 10424 10418 10412 10406 10401 10395 10390 10384 10378 10373 10366 10359 10352 10345 10337 10330 10322
10523 10525 10529 10530 10528 10526 10528 10533 10535 10537 10538 10538 10539 10539 10540 10538 10536 10532 10532 10536 10536 10533 10542 10551 10540 10532 10538 10534 10530 10535 10534 10530 10530 10528 10525 10525 10525 10523 10522 10520 10518 10515 10514 10511 10507 10503 10500 10498 10495 10491 10488 10486 10482 10478 10474 10470 10466 10462 10458 10454 10448 10444 10439 10434 10428 10424 10420 10416 10411 10405 10399 10393 10388 10383 10378 10372 10366 10361 10355 10349 10341 10333 10326 10318 10311 10304
10513 10517 10522 10520 10517 10518 10521 10522 10524 10526 10526 10527 10527 10528 10529 10527 10524 10523 10523 10524 10521 10521 10533 10536 10523 10522 10526 10518 10515 10522 10519 10515 10515 10514 10514 10513 10511 10510 10510 10508 10506 10504 10501 10498 10493 10489 10487 10483 10480 10476 10473 10470 10467 10462 10457 10454 10450 10446 10442 10438 10432 10427 10423 10417 10412 10407 10403 10398 10393 10386 10380 10375 10370 10366 10360 10355 10349 10344 10338 10330 10322 10314 10307 10300 10293 10288
10504 10508 10512 10509 10507 10509 10510 10511 10514 10514 10514 10516 10516 10516 10518 10517 10515 10512 10513 10512 10508 10510 10519 10516 10508 10513 10516 10506 10502 10504 10502 10499 10500 10500 10500 10499 10497 10496 10494 10492 10491 10488 10485 10482 10478 10474 10471 10466 10462 10459 10456 10454 10450 10446 10442 10438 10434 10430 10426 10422 10416 10410 10406 10401 10395 10390 10384 10379 10375 10368 10362 10358 10353 10348 10344 10338 10332 10327 10319 10311 10303 10296 10290 10284 10278 10273
10495 10498 10500 10499 10496 10497 10500 10502 10502 10502 10503 10502 10503 10507 10510 10507 10503 10502 10503 10500 10493 10496 10503 10498 10494 10503 10505 10494 10487 10486 10486 10485 10484 10484 10484 10484 10482 10481 10478 10476 10474 10471 10468 10465 10461 10458 10453 10449 10446 10442 10440 10437 10434 10431 10427 10422 10418 10414 10411 10405 10398 10393 10389 10384 10378 10373 10368 10363 10358 10351 10346 10341 10337 10332 10328 10322 10315 10309 10301 10293 10286 10280 10274 10268 10262 10258
10486 10487 10489 10488 10485 10485 10490 10491 10489 10490 10488 10485 10493 10504 10501 10494 10492 10491 10489 10486 10481 10484 10487 10482 10483 10490 10488 10479 10475 10474 10473 10471 10469 10469 10469 10467 10467 10465 10464 10461 10457 10454 10452 10448 10445 10441 10437 10434 10431 10427 10424 10421 10418 10414 10410 10406 10401 10398 10393 10386 10381 10377 10372 10367 10361 10357 10352 10347 10341 10335 10330 10325 10321 10316 10311 10305 10298 10291 10283 10277 10271 10264 10258 10252 10247 10243
10476 10476 10478 10477 10473 10473 10478 10479 10478 10477 10471 10472 10489 10498 10488 10480 10480 10478 10475 10476 10474 10472 10470 10469 10473 10475 10469 10467 10467 10464 10461 10458 10455 10455 10454 10452 10451 10449 10447 10444 10440 10439 10436 10432 10429 10425 10422 10420 10416 10413 10410 10406 10402 10398 10393 10388 10384 10380 10374 10368 10363 10360 10355 10350 10345 10341 10337 10331 10324 10319 10314 10309 10305 10300 10294 10287 10280 10274 10268 10262 10256 10249 10243 10238 10233 10228
10466 10466 10466 10465 10462 10462 10466 10468 10465 10460 10459 10471 10485 10484 10472 10467 10467 10464 10464 10466 10464 10459 10456 10457 10460 10459 10455 10456 10455 10451 10448 10446 10442 10439 10438 10436 10435 10431 10429 10427 10425 10424 10421 10417 10414 10411 10407 10405 10401 10397 10394 10390 10385 10381 10376 10371 10367 10362 10357 10352 10347 10343 10338 10334 10330 10326 10321 10314 10308 10303 10299 10294 10289 10283 10277 10271 10264 10259 10253 10247 10241 10235 10229 10224 10218 10213
10454 10453 10453 10453 10451 10451 10453 10454 10449 10448 10457 10468 10470 10467 10463 10459 10456 10451 10450 10452 10451 10448 10445 10444 10446 10446 10442 10440 10439 10436 10434 10432 10428 10426 10425 10423 10418 10415 10414 10413 10411 10408 10405 10401 10399 10396 10393 10389 10385 10381 10378 10373 10369 10364 10359 10355 10351 10346 10342 10336 10331 10327 10322 10318 10315 10311 10305 10299 10293 10288 10284 10279 10273 10266 10260 10255 10249 10243 10237 10231 10226 10220 10214 10209 10203 10198
10442 10440 10440 10439 10437 10437 10438 10438 10437 10440 10451 10455 10455 10457 10456 10448 10442 10436 10432 10436 10440 10436 10432 10432 10434 10434 10427 10423 10423 10421 10418 10417 10416 10417 10417 10410 10403 10402 10402 10401 10397 10392 10389 10386 10384 10381 10378 10373 10369 10365 10362 10358 10354 10349 10345 10341 10336 10332 10327 10321 10316 10312 10307 10303 10300 10295 10289 10284 10279 10275 10270 10263 10256 10250 10245 10240 10234 10228 10222 10216 10210 10205 10199 10193 10188 10183
10433 10431 10430 10427 10425 10424 10423 10423 10424 10428 10437 10446 10448 10447 10440 10431 10427 10420 10416 10425 10432 10424 10418 10420 10421 10419 10414 10409 10408 10406 10404 10403 10406 10411 10406 10394 10389 10391 10391 10387 10382 10376 10374 10372 10369 10366 10362 10358 10354 10350 10347 10343 10340 10336 10332 10327 10323 10318 10313 10308 10303 10297 10293 10289 10284 10278 10274 10270 10266 10260 10253 10246 10240 10235 10230 10224 10218 10212 10207 10201 10195 10189 10184 10178 10173 10169
10422 10421 10421 10417 10414 10413 10410 10410 10411 10413 10426 10440 10438 10430 10422 10416 10412 10406 10402 10413 10422 10414 10406 10406 10406 10404 10400 10395 10394 10393 10390 10390 10396 10399 10390 10378 10377 10380 10377 10371 10366 10362 10359 10357 10353 10350 10346 10343 10339 10336 10333 10329 10325 10322 10318 10313 10308 10304 10299 10294 10289 10283 10279 10274 10268 10263 10259 10256 10251 10243 10237 10230 10224 10219 10214 10209 10203 10197 10191 10186 10180 10175 10169 10164 10159 10155
10410 10409 10409 10405 10402 10403 10402 10400 10400 10402 10416 10427 10422 10414 10409 10402 10398 10392 10387 10400 10413 10405 10393 10392 10391 10388 10386 10383 10382 10380 10377 10377 10381 10381 10374 10368 10367 10366 10362 10357 10352 10348 10345 10341 10338 10335 10331 10328 10325 10322 10318 10315 10311 10307 10303 10298 10293 10289 10284 10279 10274 10269 10265 10259 10253 10250 10246 10241 10235 10227 10221 10215 10209 10205 10199 10193 10187 10181 10176 10171 10166 10161 10155 10150 10145 10141
10397 10396 10395 10392 10392 10394 10391 10389 10390 10394 10405 10412 10406 10400 10396 10389 10383 10377 10373 10386 10400 10392 10379 10378 10378 10376 10374 10372 10370 10368 10365 10363 10364 10364 10361 10358 10355 10350 10346 10343 10338 10335 10331 10327 10323 10320 10317 10313 10311 10307 10303 10300 10296 10292 10288 10283 10279 10274 10269 10264 10260 10255 10249 10243 10240 10237 10232 10225 10219 10212 10206 10200 10195 10190 10184 10178 10172 10167 10162 10157 10152 10146 10141 10136 10131 10127
10384 10383 10382 10382 10382 10382 10380 10378 10378 10384 10394 10399 10394 10387 10381 10373 10368 10366 10366 10373 10379 10373 10367 10367 10366 10364 10363 10359 10356 10355 10353 10350 10349 10349 10347 10344 10341 10336 10332 10328 10325 10321 10317 10313 10310 10306 10302 10299 10296 10292 10288 10284 10280 10277 10272 10267 10264 10259 10254 10250 10245 10239 10233 10230 10227 10222 10215 10209 10203 10197 10191 10185 10181 10176 10170 10164 10158 10153 10148 10143 10138 10133 10127 10122 10118 10113
10372 10370 10369 10370 10372 10372 10369 10365 10363 10371 10386 10390 10378 10369 10365 10359 10354 10357 10359 10357 10357 10358 10358 10355 10353 10351 10349 10347 10345 10344 10341 10338 10336 10333 10330 10328 10326 10323 10318 10315 10312 10308 10303 10300 10296 10292 10289 10285 10280 10276 10273 10269 10265 10261 10256 10252 10248 10244 10239 10235 10229 10222 10219 10217 10212 10206 10200 10194 10188 10182 10177 10172 10168 10162 10156 10151 10145 10140 10135 10129 10124 10119 10114 10109 10105 10101
10357 10356 10356 10361 10363 10358 10354 10351 10349 10360 10375 10373 10357 10351 10353 10349 10342 10342 10343 10341 10341 10345 10344 10341 10339 10338 10336 10336 10336 10333 10330 10327 10322 10318 10315 10313 10312 10308 10304 10301 10298 10294 10289 10285 10281 10278 10275 10270 10266 10262 10259 10256 10251 10246 10241 10238 10234 10229 10225 10220 10213 10208 10206 10202 10196 10190 10185 10180 10173 10168 10164 10159 10154 10148 10143 10137 10132 10126 10121 10116 10110 10106 10101 10096 10092 10088
10345 10345 10346 10349 10347 10340 10338 10340 10341 10347 10354 10351 10342 10339 10339 10335 10328 10326 10326 10326 10327 10328 10328 10327 10327 10325 10324 10325 10323 10320 10317 10313 10308 10305 10302 10300 10297 10294 10290 10285 10282 10278 10274 10269 10266 10263 10259 10256 10253 10249 10246 10242 10237 10232 10228 10224 10220 10216 10212 10205 10198 10194 10191 10186 10180 10175 10170 10164 10159 10154 10150 10144 10139 10134 10129 10124 10119 10113 10108 10102 10097 10094 10089 10084 10080 10076
10333 10333 10332 10332 10330 10326 10325 10329 10331 10331 10332 10331 10327 10324 10320 10315 10313 10311 10311 10311 10310 10311 10313 10315 10315 10314 10312 10309 10306 10303 10301 10298 10295 10292 10289 10286 10283 10279 10275 10271 10266 10261 10257 10254 10251 10247 10244 10241 10239 10236 10232 10227 10222 10218 10214 10210 10206 10203 10197 10189 10183 10180 10175 10170 10165 10160 10155 10149 10145 10140 10135 10130 10125 10120 10115 10111 10106 10100 10094 10088 10084 10081 10077 10072 10068 10064
10318 10319 10318 10316 10316 10312 10311 10316 10319 10316 10313 10311 10308 10305 10301 10297 10295 10295 10295 10295 10296 10297 10300 10302 10301 10298 10295 10292 10290 10289 10287 10284 10281 10277 10274 10271 10268 10265 10261 10256 10251 10245 10242 10239 10235 10232 10229 10226 10223 10220 10216 10211 10206 10202 10199 10195 10192 10188 10181 10174 10169 10164 10159 10154 10150 10146 10140 10135 10131 10126 10122 10117 10112 10107 10102 10098 10093 10087 10081 10075 10070 10067 10063 10059 10055 10051
10306 10306 10303 10303 10303 10299 10297 10304 10306 10299 10294 10292 10288 10284 10282 10279 10278 10279 10281 10282 10284 10286 10285 10284 10282 10279 10277 10277 10277 10276 10272 10269 10264 10260 10257 10255 10252 10249 10246 10241 10236 10230 10226 10222 10219 10216 10214 10211 10206 10202 10198 10194 10189 10186 10184 10181 10177 10171 10165 10159 10153 10148 10144 10140 10135 10130 10125 10121 10117 10112 10108 10103 10099 10094 10089 10085 10080 10074 10068 10062 10056 10053 10049 10046 10042 10039
10294 10292 10289 10290 10291 10287 10286 10290 10289 10281 10276 10274 10269 10265 10264 10263 10264 10265 10267 10268 10270 10270 10267 10264 10262 10262 10263 10263 10261 10259 10255 10251 10247 10243 10240 10238 10236 10233 10229 10224 10220 10215 10210 10206 10203 10200 10198 10195 10190 10185 10181 10177 10172 10169 10168 10165 10161 10155 10150 10145 10138 10133 10129 10125 10120 10115 10111 10107 10103 10098 10093 10089 10086 10081 10076 10072 10067 10062 10056 10049 10044 10039 10036 10032 10029 10026
10281 10281 10279 10276 10273 10271 10271 10273 10270 10263 10259 10257 10255 10252 10248 10247 10249 10250 10251 10252 10253 10251 10248 10246 10246 10248 10250 10248 10244 10241 10238 10235 10231 10226 10223 10222 10220 10216 10211 10207 10202 10197 10193 10190 10187 10185 10182 10178 10173 10169 10166 10162 10156 10152 10151 10148 10143 10138 10135 10130 10124 10118 10113 10109 10105 10101 10098 10093 10088 10084 10080 10076 10072 10068 10063 10059 10054 10049 10044 10038 10032 10027 10022 10019 10016 10013
10268 10268 10265 10258 10253 10253 10255 10255 10251 10246 10243 10243 10242 10237 10232 10232 10234 10235 10234 10235 10234 10232 10230 10229 10231 10233 10234 10231 10226 10222 10221 10218 10214 10209 10207 10205 10202 10198 10193 10189 10185 10181 10177 10172 10169 10168 10165 10160 10156 10154 10152 10148 10142 10137 10135 10131 10125 10121 10117 10113 10108 10103 10098 10094 10091 10087 10084 10079 10074 10070 10066 10062 10059 10055 10051 10046 10041 10036 10031 10027 10021 10015 10011 10007 10004 10001
10251 10251 10247 10241 10239 10239 10239 10239 10234 10228 10226 10226 10225 10221 10219 10220 10220 10217 10215 10215 10215 10214 10214 10215 10217 10217 10214 10211 10207 10205 10204 10201 10196 10193 10191 10189 10185 10180 10175 10171 10169 10166 10161 10156 10152 10150 10146 10143 10140 10138 10137 10133 10127 10123 10121 10116 10110 10104 10100 10095 10091 10087 10083 10079 10076 10072 10069 10064 10059 10055 10051 10048 10045 10041 10037 10033 10028 10023 10019 10015 10010 10005 10000 9996 9992 9989